RH
8 8 8 8 8 7 6 6 5 5 4 4 3 3 2 2 2 2 2 2 3 3 3 4 4 5 6 8 9 10 11 12 12 12 12 11 11 10 9 8 7 6 5 4 3 3 3 3 3 4 4 4 4 4 4 4 4 4 4 4 4 4 4 5 6 6 7 8 8 9 10 10 11 11 10 10 10 10 10 10 10 10 10 10 9 9
9 8 8 8 7 6 6 5 4 4 3 3 2 2 2 2 2 2 3 3 4 4 4 6 7 9 11 13 15 16 18 18 18 18 18 18 18 16 16 14 13 12 10 9 8 6 5 5 4 4 4 4 5 5 5 5 5 5 5 5 5 5 5 6 6 7 7 8 9 10 10 11 12 12 12 12 12 12 12 12 12 12 12 12 12 12
8 8 8 7 6 5 5 4 4 3 2 2 2 2 2 2 3 3 4 4 4 6 8 10 13 16 18 21 23 24 25 25 26 26 26 26 26 26 25 24 23 22 20 18 16 14 12 10 9 8 6 6 6 6 6 6 6 6 6 6 6 6 6 6 6 7 8 8 9 10 11 12 13 13 14 14 14 14 14 14 14 14 13 13 13 12
8 8 7 6 5 4 4 3 3 2 2 2 2 2 3 3 4 4 4 5 7 10 14 18 22 24 27 29 30 31 32 32 32 33 34 34 35 35 35 35 34 33 32 30 29 27 24 22 19 16 14 12 10 8 7 7 7 7 7 7 7 7 7 7 8 8 8 9 10 11 12 13 14 14 14 14 14 14 14 14 13 13 12 12 12 12
8 6 6 5 4 4 3 2 2 2 2 2 3 3 4 4 4 5 6 8 12 17 22 27 30 32 34 35 35 36 36 37 38 40 40 42 42 42 43 43 42 42 42 42 41 40 38 37 34 32 28 24 21 18 14 12 10 8 8 8 8 8 8 8 8 8 9 10 10 11 12 13 13 14 14 14 13 13 13 13 13 13 13 14 14 14
6 6 5 4 3 3 2 2 2 2 2 3 3 4 4 5 6 8 10 15 20 26 31 34 36 38 38 39 39 39 40 40 42 43 44 45 46 46 46 46 47 47 48 48 48 48 48 47 46 45 43 41 38 35 31 27 23 20 17 15 13 12 11 10 10 10 10 11 11 12 12 13 13 14 14 14 15 16 16 18 18 20 20 21 22 24
5 4 4 3 2 2 2 2 2 3 3 4 4 4 5 6 9 13 18 24 30 34 38 39 40 40 41 41 41 41 41 42 44 45 46 46 47 47 47 48 48 49 49 50 50 50 50 50 50 50 50 50 49 48 47 45 43 40 37 34 31 28 26 24 22 21 20 20 20 20 20 20 21 22 23 24 26 27 29 30 32 33 34 35 36 36
4 4 3 2 2 2 2 3 3 4 4 4 4 5 6 10 15 20 27 33 38 40 41 41 41 42 42 42 42 42 42 43 44 45 46 46 46 47 47 48 49 50 50 50 50 50 50 50 50 50 50 50 50 51 51 51 51 50 50 49 48 46 45 44 42 41 40 39 38 38 38 38 38 39 40 41 42 44 45 46 46 47 47 47 47 47
3 3 2 2 2 2 3 3 4 4 5 5 6 8 11 16 22 28 34 39 42 44 43 42 42 43 44 44 43 42 42 43 44 45 46 46 46 47 48 49 50 51 52 52 51 51 50 50 49 49 49 49 49 49 49 49 49 50 50 51 52 52 53 53 53 54 54 54 54 54 54 54 54 54 55 55 55 55 55 54 54 53 52 52 52 51
3 2 2 2 3 3 4 4 4 4 5 6 9 13 18 24 29 34 38 42 45 46 45 44 44 44 44 44 44 43 42 42 44 46 47 47 48 48 50 52 53 54 54 54 54 53 52 51 50 50 50 50 49 48 48 48 48 48 48 49 50 50 51 52 53 54 56 56 58 58 58 59 60 60 60 60 59 58 57 56 54 53 51 50 50 49
2 2 2 3 4 4 4 4 5 5 6 10 14 20 28 34 37 39 41 44 46 47 47 47 46 46 44 44 42 42 41 42 45 47 50 50 51 52 53 55 57 57 57 57 56 56 54 54 53 52 52 52 50 50 49 48 48 48 49 50 50 51 52 52 53 54 55 56 57 57 57 57 57 57 56 56 55 54 53 51 49 47 46 44 44 43
2 3 3 4 4 4 4 5 6 7 10 16 21 28 36 40 43 44 44 45 46 47 48 48 48 48 46 43 41 40 40 42 46 49 52 54 55 56 57 58 60 60 59 59 58 58 57 56 56 56 56 54 54 52 51 50 50 50 51 52 53 54 55 55 55 56 56 55 55 55 54 53 52 50 49 48 46 45 43 42 40 38 36 35 34 34
3 4 4 4 4 5 5 6 8 11 16 24 30 36 40 44 46 46 46 47 47 48 48 49 50 50 48 43 40 38 39 42 46 50 54 57 58 58 59 60 62 62 62 61 61 61 60 60 60 59 59 58 57 55 54 53 53 53 54 54 56 57 58 57 56 55 54 52 51 50 48 46 44 42 40 38 36 34 32 30 29 27 26 24 24 23
4 4 4 5 5 5 6 8 12 18 24 32 38 42 45 46 48 48 48 48 49 49 49 49 50 50 50 46 42 39 39 42 46 51 56 60 60 61 60 62 63 64 64 64 64 64 63 63 62 62 62 61 60 58 57 56 56 56 56 57 58 59 60 57 54 51 48 45 43 41 39 38 35 34 31 29 27 25 23 21 19 17 15 14 13 12
4 5 5 5 5 6 9 14 19 26 34 39 44 46 48 48 49 49 49 50 50 49 49 49 50 52 53 50 45 41 40 42 46 51 57 62 64 64 62 63 65 66 67 66 66 65 65 64 64 64 63 62 61 60 59 58 58 58 59 60 61 62 60 56 50 45 40 36 34 32 31 30 29 28 26 24 22 20 18 15 13 10 8 6 5 4
5 5 5 5 7 10 14 21 28 35 40 44 47 49 50 50 50 51 50 50 50 49 48 48 50 52 56 54 50 46 43 44 48 52 58 64 67 68 66 65 66 68 70 69 68 66 64 64 62 62 61 60 60 60 59 60 60 61 62 64 64 64 60 54 47 40 34 30 28 26 26 24 23 22 21 19 18 16 14 12 10 8 6 5 4 3
5 5 6 7 10 15 22 30 37 42 46 48 49 50 51 51 52 52 52 50 49 48 47 47 48 51 54 57 56 52 48 48 50 54 60 66 69 70 69 68 69 70 71 69 67 65 63 62 60 60 58 58 58 57 58 58 60 62 65 66 66 64 58 50 43 36 31 27 24 22 20 20 19 18 18 18 17 16 16 15 14 13 12 12 11 10
5 6 7 10 15 22 30 38 43 46 48 49 50 51 52 53 53 53 52 51 49 47 46 47 48 50 52 56 57 56 53 53 54 58 62 68 71 72 71 70 70 70 70 68 66 64 62 62 61 60 59 58 57 56 57 58 60 63 66 66 64 60 53 45 38 32 27 24 22 21 21 22 24 24 25 26 26 26 26 26 26 26 25 24 24 23
6 8 11 16 22 29 37 43 47 48 49 49 50 52 53 54 55 54 54 52 50 48 46 47 48 50 52 55 56 56 56 56 58 60 64 67 71 73 72 71 70 70 69 68 66 65 64 64 64 63 61 60 58 58 58 59 61 63 65 64 60 54 47 40 33 28 24 24 26 29 33 36 38 40 41 42 42 42 41 40 40 39 38 38 37 36
8 12 18 24 29 36 42 47 49 50 50 50 51 53 54 55 55 55 55 53 51 50 48 49 50 52 53 55 57 58 57 58 60 61 62 66 69 71 71 70 70 69 68 68 66 66 65 65 64 64 62 61 60 60 60 61 62 64 63 60 55 48 41 34 30 28 29 34 40 44 49 51 53 54 54 54 54 54 53 52 50 49 48 47 46 44
13 18 26 32 36 41 45 48 50 51 51 52 53 54 54 54 55 55 55 54 53 52 52 52 53 54 55 57 58 58 58 58 59 59 60 63 66 70 70 69 68 68 68 68 67 67 66 65 64 63 62 61 61 62 62 63 64 63 60 56 50 43 36 32 32 35 41 48 53 56 58 58 58 58 58 58 58 58 58 57 56 55 54 52 51 50
20 26 33 38 42 44 47 49 50 52 53 54 54 54 54 54 54 55 55 55 55 55 55 56 56 57 57 58 59 59 58 58 57 57 58 60 65 68 69 67 66 66 66 66 66 65 64 62 61 60 60 60 62 63 64 64 63 60 57 51 44 39 34 35 39 45 52 57 59 60 58 58 58 58 58 58 58 58 58 58 58 57 56 54 53 51
28 34 39 42 45 47 48 50 51 53 54 55 55 55 54 54 54 54 56 56 56 57 57 58 58 58 58 59 59 58 57 56 55 55 56 60 64 67 68 65 64 64 65 65 63 60 58 58 57 58 59 61 63 64 64 63 61 57 52 46 41 37 36 41 47 53 58 60 60 59 58 58 58 58 58 58 57 57 57 57 57 56 56 55 54 52
36 40 43 46 47 48 49 51 52 54 54 55 55 55 54 54 54 55 56 57 58 58 58 58 58 58 59 59 58 58 56 55 55 56 58 61 64 67 66 64 63 64 65 64 60 56 53 53 54 57 60 63 65 65 64 62 58 53 48 43 40 38 41 47 53 58 60 60 59 59 60 60 60 60 59 58 57 56 56 57 57 57 57 57 57 56
41 44 46 47 48 49 50 52 53 54 55 55 54 54 54 55 56 58 58 58 58 58 58 58 58 58 59 59 60 59 58 57 57 58 60 62 65 67 66 64 64 64 64 62 58 53 50 50 53 57 62 65 66 66 64 60 55 50 46 42 41 42 46 52 56 59 60 60 61 62 64 64 64 63 62 60 58 58 58 58 58 58 59 58 58 58
45 46 47 48 49 50 52 53 54 55 55 54 54 54 54 56 58 59 60 60 60 59 58 58 58 58 60 61 62 62 61 60 60 60 62 64 66 67 66 64 63 63 63 61 56 50 47 48 52 58 64 68 68 66 62 58 54 50 47 44 44 46 50 54 58 60 62 64 65 66 68 68 67 66 63 61 59 58 58 58 58 58 58 57 55 54
48 48 48 48 50 51 53 55 56 56 56 55 54 54 54 55 57 59 60 60 60 59 58 58 58 59 60 62 64 64 64 62 62 63 65 66 67 67 65 63 62 61 61 59 54 48 45 47 51 58 66 69 69 66 62 57 54 52 50 49 50 51 54 58 61 64 66 67 68 69 70 68 66 62 59 57 56 56 56 56 56 56 55 54 52 52
50 50 50 50 51 53 55 56 57 57 57 56 55 55 55 56 57 58 59 60 59 59 58 58 58 58 60 62 64 66 66 64 64 64 66 66 67 66 64 62 59 58 57 56 52 47 44 45 50 57 67 71 70 66 62 58 56 55 55 55 56 58 60 62 64 66 66 67 67 67 65 62 58 55 52 52 52 54 54 54 53 52 51 50 50 51
52 52 51 52 53 54 56 57 58 58 58 58 57 57 57 57 58 58 58 58 58 58 58 58 58 58 59 60 64 66 68 66 66 66 66 66 67 66 64 60 56 52 50 52 51 48 44 44 47 55 66 71 71 68 64 62 60 60 61 62 64 65 66 66 65 64 64 63 62 60 58 54 51 50 50 52 54 55 56 55 53 51 49 48 49 50
54 53 53 54 55 56 57 58 58 59 59 59 59 59 59 59 59 58 58 58 58 58 58 58 58 58 58 60 62 65 68 68 68 66 66 66 66 65 62 58 52 46 43 47 50 51 48 44 46 52 63 70 73 71 68 66 66 66 67 69 70 70 68 66 64 62 61 60 58 56 53 52 52 53 54 56 57 59 60 60 58 56 52 49 48 49
56 55 56 56 57 58 59 60 60 60 61 61 61 61 60 60 60 58 58 58 57 57 57 58 58 59 59 60 62 64 68 68 68 67 66 67 66 63 59 53 47 40 36 40 47 52 52 48 48 50 60 68 72 74 73 72 72 72 73 73 72 70 66 63 61 59 58 56 55 54 54 55 57 58 60 60 60 61 62 62 61 59 55 50 47 47
57 57 58 58 60 60 60 61 61 62 62 62 62 62 61 60 59 58 56 56 56 56 56 57 58 59 60 61 63 65 67 68 68 68 66 66 64 60 54 48 42 36 32 35 41 47 50 51 50 51 58 64 68 71 72 72 72 72 72 70 66 63 60 58 57 56 55 55 56 56 58 60 62 64 64 64 63 62 62 60 58 56 51 47 44 44
58 59 60 60 61 62 62 62 62 63 63 62 62 61 60 58 57 55 53 52 52 53 54 55 56 58 60 62 64 66 68 69 68 67 66 64 61 55 48 42 38 35 33 34 37 40 44 48 49 51 56 59 62 63 64 63 63 62 61 60 58 57 56 56 56 56 58 59 60 62 63 65 66 66 66 65 64 63 61 58 55 50 46 42 40 40
60 61 62 62 63 63 63 63 63 62 62 61 60 58 57 55 53 51 49 48 48 48 50 53 55 56 58 61 64 68 70 70 69 68 66 63 57 50 42 37 34 34 34 35 36 37 39 42 46 50 54 56 56 55 54 54 54 54 55 55 56 57 58 59 60 62 64 64 66 67 68 69 69 68 67 65 63 60 58 54 50 45 41 39 38 40
62 62 63 64 64 64 64 63 62 60 58 57 55 53 51 50 48 46 44 43 42 42 44 48 52 55 58 60 64 67 71 72 71 69 67 61 53 44 37 34 32 32 33 34 35 36 37 40 44 48 52 54 54 54 54 55 56 57 58 60 61 62 64 65 66 68 68 69 70 71 72 72 71 70 68 64 60 56 53 49 45 41 38 38 40 43
64 64 64 64 64 63 62 60 58 55 52 50 47 45 43 42 40 40 38 37 36 37 38 42 48 52 57 60 64 67 70 72 72 70 68 60 50 40 34 31 30 30 31 32 34 36 38 42 45 49 53 55 57 58 60 61 62 62 64 65 66 66 67 68 68 69 70 72 73 74 74 72 71 69 66 62 58 53 50 46 43 41 40 42 45 50
64 64 63 62 60 59 57 54 50 47 44 40 38 36 34 33 32 32 32 31 30 31 32 36 42 48 54 59 63 67 70 72 72 71 68 58 47 37 31 30 28 28 30 32 34 37 41 45 49 52 56 58 61 64 67 68 68 68 68 67 66 66 66 67 68 68 70 72 74 74 73 72 70 68 65 60 55 50 46 44 43 43 44 49 54 60
64 62 60 58 54 51 48 44 40 37 34 31 29 27 26 25 24 24 24 24 25 25 26 30 36 44 51 58 63 67 70 71 72 71 67 56 45 35 29 29 28 29 31 32 36 39 44 48 52 56 59 61 64 66 69 71 72 72 72 70 68 67 66 68 69 70 72 73 74 74 73 72 71 68 65 58 50 43 39 40 43 47 53 59 63 65
59 56 53 49 45 41 37 34 30 28 25 23 22 20 19 18 18 18 19 19 20 20 22 25 31 39 48 56 62 67 70 72 72 70 66 55 44 34 29 29 30 31 33 35 38 41 44 48 51 54 57 60 62 63 65 67 70 72 73 73 72 71 70 71 72 73 74 74 74 74 74 74 72 69 64 54 44 37 35 40 46 54 62 66 67 68
51 47 42 38 34 30 27 24 22 20 19 18 16 16 15 14 14 15 15 16 16 16 18 20 26 34 44 53 61 67 70 72 72 71 66 55 44 35 30 30 31 33 35 37 39 42 44 46 49 50 52 54 56 58 60 61 63 66 69 73 74 74 74 74 74 75 76 76 76 76 76 74 71 66 59 48 40 36 38 44 52 60 66 70 71 72
40 36 32 28 24 22 20 18 17 16 15 14 13 13 12 12 12 12 13 13 13 13 14 16 22 30 40 51 60 66 70 72 72 71 67 56 44 35 31 32 33 35 36 38 39 41 43 45 46 48 49 50 52 55 58 61 63 65 68 72 74 75 74 75 76 76 76 76 76 76 74 72 69 64 56 50 48 48 50 55 61 66 72 74 75 75
30 26 23 21 19 18 16 16 15 14 13 13 12 12 11 11 11 11 11 11 11 11 10 12 18 26 37 50 59 66 70 71 72 71 68 56 45 36 32 33 35 36 38 38 39 40 42 43 44 45 47 49 52 55 60 65 68 70 71 73 75 76 75 76 76 76 76 76 76 75 74 71 68 66 63 63 64 65 65 68 71 74 76 75 75 75
23 21 19 18 18 17 16 16 15 14 14 13 12 12 11 11 11 11 11 11 10 10 8 10 14 23 35 49 60 68 71 72 72 71 67 56 46 37 33 34 36 38 39 39 40 40 40 41 42 43 44 48 51 55 61 68 72 74 74 75 75 74 74 72 73 75 76 76 76 74 73 71 70 70 70 71 71 72 73 74 76 76 76 76 75 74
21 20 20 19 19 19 18 18 16 16 15 14 13 12 12 11 11 10 11 11 10 10 8 8 13 21 34 48 60 69 73 72 72 70 68 57 46 38 34 35 37 39 40 40 40 40 40 40 40 41 42 45 50 54 60 68 73 76 76 76 76 74 72 68 68 72 77 76 74 72 71 71 72 73 74 74 74 75 76 76 76 74 73 74 74 73
23 23 23 22 22 21 20 19 18 18 16 15 14 13 12 12 11 11 11 11 10 10 8 8 12 20 33 48 60 70 74 74 72 71 68 58 48 40 36 36 38 40 41 40 40 40 40 41 42 42 42 46 50 55 60 67 72 76 76 76 76 74 71 68 70 73 76 72 68 67 69 72 74 75 75 76 76 76 75 72 69 68 68 71 71 67
26 26 26 24 24 23 22 22 21 20 19 18 16 15 14 13 12 12 11 11 11 10 9 9 12 20 32 47 60 71 76 75 74 71 68 58 49 41 37 38 39 40 41 41 40 40 40 41 42 44 47 50 54 59 64 69 73 76 76 76 76 74 72 71 73 75 75 67 63 64 70 74 76 76 76 76 76 75 72 67 64 64 69 71 66 55
29 28 28 27 26 25 24 24 23 22 22 20 19 18 16 15 14 13 12 12 12 11 10 10 13 20 31 46 60 71 77 76 75 73 69 60 50 42 38 39 40 41 42 42 42 41 41 42 44 47 52 57 62 66 70 73 74 76 76 76 76 75 74 74 76 76 73 65 64 67 73 75 76 76 74 74 72 71 68 62 62 65 70 64 54 41
31 30 30 29 28 27 26 26 26 26 25 24 22 20 19 18 16 15 14 14 13 12 12 12 14 20 30 44 58 70 76 76 76 74 71 63 53 44 40 40 41 42 43 44 43 43 43 45 48 51 56 62 68 72 75 76 76 76 76 76 76 75 75 76 76 75 70 65 66 71 75 76 76 74 70 69 68 67 64 59 60 63 66 57 46 35
32 32 32 30 30 29 28 28 27 27 27 26 25 24 22 21 19 18 17 16 15 14 13 14 16 22 31 44 57 68 76 76 76 74 72 66 58 48 42 41 42 44 45 46 45 45 46 48 51 55 60 66 70 74 76 76 76 76 76 76 76 76 76 76 76 74 66 66 69 74 75 76 74 71 68 68 67 66 62 60 62 66 65 54 45 38
34 34 33 32 31 30 28 28 28 28 28 27 27 26 25 24 23 22 20 18 17 16 14 15 17 23 32 44 57 68 75 76 75 74 72 68 61 53 46 44 44 45 47 48 47 47 47 49 52 55 59 65 70 74 76 76 76 76 76 76 76 76 76 77 76 72 64 67 71 74 74 75 73 70 68 69 68 66 63 64 68 69 66 55 48 44
36 35 34 32 31 29 28 27 27 27 28 28 28 28 27 27 27 26 25 23 22 20 18 16 18 23 31 43 56 67 74 76 75 74 73 70 64 57 50 47 46 47 48 49 49 49 50 51 53 55 58 63 68 72 76 76 76 76 76 76 76 76 76 77 75 70 64 69 73 74 75 74 72 70 70 69 67 65 66 69 72 72 67 56 52 51
Wind_Speed
100 103 105 107 109 111 112 113 114 113 113 113 111 109 106 103 100 96 93 89 86 84 82 80 77 75 73 71 69 68 67 66 65 64 63 61 60 59 57 56 55 53 52 51 50 49 48 47 46 46 46 46 47 48 49 51 53 55 57 59 61 63 64 65 66 67 67 68 68 69 69 69 69 70 70 70 70 69 69 70 70 70 70 70 70 69
104 106 108 110 111 112 113 114 113 112 110 108 106 103 99 95 91 88 85 82 79 76 74 71 69 67 65 64 62 62 61 60 59 59 57 56 55 54 53 51 50 49 48 46 45 44 43 42 42 41 41 41 41 42 42 44 45 47 49 51 53 55 57 59 60 62 63 64 65 65 66 66 67 67 67 67 67 67 67 67 68 68 68 69 69 69
107 109 111 112 112 112 112 112 111 109 106 102 99 95 91 87 83 80 77 75 72 69 66 63 61 60 59 58 57 57 57 56 56 55 54 52 51 50 49 48 47 46 44 43 42 42 41 40 39 38 37 37 37 37 37 38 39 41 42 44 46 48 50 52 54 56 58 59 61 62 62 63 64 64 65 65 65 66 66 66 67 67 68 68 69 69
109 111 112 113 113 112 110 108 106 103 100 95 91 87 83 79 76 73 70 67 64 61 59 57 55 55 54 54 54 54 53 53 52 51 50 49 48 47 46 45 44 43 42 41 40 39 39 38 37 36 36 35 35 34 34 34 35 36 37 38 40 42 44 46 48 51 53 55 56 58 59 60 61 62 63 63 64 64 65 65 66 66 67 68 68 69
112 112 112 112 111 109 108 104 100 96 92 88 83 79 75 72 69 66 63 60 57 54 53 52 52 51 51 51 51 51 51 50 49 48 47 46 46 45 44 43 42 41 40 39 38 38 37 37 36 35 34 34 33 33 32 32 32 33 34 35 36 38 39 41 43 46 48 50 52 54 55 57 58 59 60 61 61 62 62 63 63 64 64 65 65 65
113 112 111 110 107 105 102 98 93 89 84 80 76 72 68 65 62 59 56 54 51 50 49 49 49 49 49 49 49 49 48 48 47 46 45 44 43 42 42 41 40 39 38 38 37 37 36 35 35 34 34 33 32 32 31 31 31 31 31 32 33 34 35 37 39 41 43 45 47 49 51 52 54 55 55 56 57 57 57 58 58 59 59 59 60 60
113 112 109 106 103 99 95 90 85 81 76 73 70 66 62 58 55 53 50 49 47 47 47 47 47 47 47 47 48 47 46 45 44 43 42 41 41 40 39 39 38 37 37 36 36 36 35 35 34 34 33 32 31 31 30 30 30 30 30 30 30 31 32 33 35 36 38 40 42 44 45 46 48 48 49 50 50 51 51 52 52 53 53 54 55 55
110 108 106 101 97 93 88 83 78 74 69 66 63 60 56 52 49 47 46 45 45 45 46 45 45 45 45 46 46 46 45 43 42 40 39 39 38 38 37 37 36 36 35 35 35 35 35 34 34 33 32 32 31 30 30 30 29 29 29 29 29 30 30 31 32 33 35 36 38 39 40 41 43 43 44 45 46 47 47 48 49 50 50 51 52 53
106 103 100 96 90 84 80 77 73 68 63 60 56 53 50 47 45 44 43 43 44 44 44 44 44 43 44 44 45 44 43 41 39 38 37 37 36 36 36 35 35 35 35 35 35 35 34 34 33 33 32 31 31 30 29 29 28 28 28 28 28 28 29 30 31 32 33 34 36 37 38 39 40 41 42 43 44 45 46 47 48 49 49 50 51 52
102 97 92 88 83 78 72 69 66 63 58 54 50 47 45 43 42 42 41 41 42 43 43 42 42 41 42 42 43 42 41 38 36 35 35 35 35 35 35 35 34 34 34 34 35 35 34 34 33 33 32 31 31 30 29 28 27 27 27 27 27 27 28 29 30 31 32 33 34 36 37 38 40 41 42 43 44 45 46 47 48 48 49 50 50 51
96 91 86 81 77 72 68 63 60 56 52 49 46 43 41 41 41 41 41 40 40 40 40 40 39 40 40 41 41 40 38 36 34 33 32 33 34 35 35 34 34 34 34 34 35 35 35 35 34 34 33 32 31 30 29 28 27 27 26 26 26 27 27 28 29 30 31 33 34 35 37 38 39 41 42 43 44 45 46 47 47 48 49 49 50 51
89 84 79 74 70 67 63 59 55 50 47 44 42 40 40 40 40 41 40 40 39 38 37 37 37 37 38 39 39 38 36 33 31 30 30 32 33 34 34 34 34 34 34 34 35 36 36 36 36 35 35 34 33 32 31 30 29 28 27 27 27 27 28 28 29 30 31 32 34 35 36 38 39 40 41 42 43 44 45 46 46 47 48 48 49 50
82 77 73 69 65 61 58 53 49 46 42 40 39 39 39 40 40 40 39 39 38 37 36 35 34 35 36 38 37 36 34 31 29 28 29 30 32 34 34 34 33 34 34 35 36 36 37 37 37 37 37 37 36 35 34 33 31 30 29 28 28 28 29 30 30 31 32 33 34 35 36 37 38 38 39 40 41 41 42 43 44 45 46 47 48 49
76 72 68 64 60 56 52 48 44 41 39 39 38 39 39 39 39 38 38 37 36 35 34 33 32 32 34 36 36 35 33 30 28 27 27 29 31 34 34 34 34 34 35 35 36 37 37 38 38 38 38 39 38 38 37 36 35 33 32 31 30 30 30 31 32 32 33 33 34 34 34 35 35 36 37 37 38 38 39 40 41 42 43 44 45 46
70 67 63 59 55 51 47 43 40 39 38 38 38 38 38 38 37 37 36 35 34 33 32 31 29 30 31 34 35 34 32 30 28 26 26 28 31 33 35 35 34 34 35 36 36 37 38 38 38 39 39 39 39 39 38 38 37 35 34 33 32 32 32 32 33 33 33 33 33 33 32 32 33 33 34 34 35 35 35 36 37 38 38 39 41 42
66 62 58 54 50 46 42 40 38 37 37 37 37 37 37 36 35 35 34 34 33 31 30 28 27 27 28 31 33 34 33 31 29 27 27 27 30 33 35 35 35 34 35 36 37 38 38 38 39 39 39 39 39 38 38 37 36 35 34 32 32 32 32 33 34 34 33 32 31 30 29 29 29 29 29 30 30 30 31 31 32 32 33 34 35 35
61 57 53 49 44 41 38 37 36 36 36 36 36 35 35 34 34 33 33 32 31 30 28 27 26 26 26 28 31 33 34 32 30 28 27 27 29 32 34 35 35 35 35 36 37 38 39 39 39 39 39 38 38 37 36 35 34 32 31 30 30 31 32 33 33 33 32 30 28 26 25 24 24 23 24 24 24 24 25 25 26 26 27 27 28 29
56 52 48 44 40 37 36 35 35 36 36 35 35 34 33 32 32 32 32 31 30 28 27 26 26 26 26 27 29 32 33 33 31 29 27 27 28 30 33 35 35 35 36 37 38 39 39 39 39 39 38 38 37 36 35 33 31 29 28 27 28 29 30 31 31 30 28 26 24 21 20 19 18 18 18 18 18 19 19 20 20 21 22 22 23 24
51 47 43 40 37 35 34 34 35 35 35 34 33 32 31 31 31 30 30 30 29 27 26 25 25 26 27 28 30 31 33 33 31 29 27 26 27 29 32 34 35 36 36 37 38 39 39 38 38 38 38 37 36 34 33 30 28 26 25 25 26 28 29 29 28 26 23 21 18 16 15 14 14 14 14 15 15 16 16 17 17 18 19 19 20 21
45 42 39 37 35 34 33 34 34 35 34 33 32 31 30 30 29 29 29 28 27 26 25 25 25 26 28 29 30 32 33 33 31 28 26 25 26 29 32 34 35 36 36 37 38 38 38 37 37 37 36 35 34 33 30 28 26 24 23 24 25 26 26 25 23 20 18 16 14 13 13 13 13 13 14 14 15 15 16 17 17 18 19 19 20 20
41 38 36 35 34 33 33 34 34 34 33 32 31 30 30 29 28 28 27 27 26 25 24 25 25 27 28 29 31 32 33 32 30 27 25 24 26 29 33 35 35 36 36 36 36 37 36 36 36 36 35 34 32 30 28 25 23 22 22 23 24 24 23 21 18 16 14 13 12 12 12 13 14 14 15 16 17 17 18 19 19 20 21 21 22 22
38 36 34 34 34 34 34 34 33 33 32 31 30 30 29 29 28 27 27 26 26 25 25 25 26 27 28 30 31 32 32 31 29 27 25 24 26 30 33 35 35 35 35 35 35 36 36 36 35 35 33 32 30 27 25 22 21 21 21 22 22 21 19 17 15 14 13 12 12 13 14 15 15 16 17 18 18 19 20 21 22 22 23 23 24 24
35 34 34 34 34 34 34 34 33 32 31 30 30 29 29 28 28 27 27 26 26 25 25 25 25 26 27 28 29 30 30 30 28 27 26 26 27 30 33 35 35 34 34 34 35 36 36 36 35 34 32 30 28 25 22 20 19 19 20 20 20 18 16 15 14 13 13 12 13 14 15 16 17 18 18 19 19 20 21 22 23 23 23 24 24 24
34 34 34 34 34 34 34 33 32 31 30 29 29 29 28 28 28 28 27 27 26 26 25 24 24 24 25 26 27 28 29 28 28 27 27 28 29 31 34 35 34 34 33 34 36 36 36 35 34 32 30 28 25 23 20 18 18 18 19 18 17 16 15 14 13 13 13 13 14 16 17 18 18 18 18 19 19 20 21 22 23 23 23 23 23 22
34 34 34 34 34 34 34 33 31 31 30 29 29 28 28 28 28 28 28 28 27 26 25 24 23 23 23 24 25 27 28 28 28 28 28 29 30 32 34 35 34 33 33 35 36 37 36 34 33 31 28 26 23 20 18 17 16 17 17 17 16 14 14 13 13 13 14 15 16 17 18 19 19 19 19 19 19 20 20 21 22 22 23 23 22 22
34 34 35 35 35 34 33 32 31 30 30 30 29 29 28 28 28 28 28 28 27 27 25 24 23 23 23 23 24 26 27 28 28 29 29 30 31 32 33 34 34 33 34 35 36 36 35 33 31 28 26 24 21 19 17 16 16 16 16 15 14 13 12 12 13 14 16 17 18 19 20 21 21 21 21 21 20 20 20 21 21 22 23 23 22 22
35 35 36 35 35 33 32 31 31 30 30 30 30 29 29 28 28 28 28 28 28 27 26 25 24 23 23 23 24 26 27 28 28 29 30 30 31 32 33 34 34 34 34 35 36 35 34 31 29 26 24 22 19 18 16 15 15 15 15 14 12 11 12 13 14 16 18 19 20 21 22 23 23 23 23 22 21 21 21 21 21 22 23 23 22 21
36 36 36 35 34 33 32 31 30 30 30 30 30 30 30 30 30 29 29 29 29 28 28 27 26 25 24 24 25 26 28 28 29 29 30 31 31 32 33 34 35 35 34 34 34 34 32 30 27 24 22 20 18 17 16 15 14 14 13 12 11 11 13 15 17 19 20 21 22 23 24 24 24 23 22 22 21 21 21 21 21 22 23 23 23 22
36 36 35 34 33 32 31 30 30 30 30 30 31 31 30 31 31 31 30 30 29 29 28 28 27 27 26 25 25 26 27 28 29 29 30 30 31 32 33 34 35 35 33 32 32 32 31 29 26 23 20 18 17 16 16 15 14 14 13 13 13 14 16 18 20 21 22 23 23 24 23 23 22 21 20 19 19 19 19 20 20 21 22 23 23 23
35 34 34 33 32 31 31 30 30 30 31 31 31 31 31 31 31 31 31 30 30 29 29 28 28 27 26 25 24 25 26 27 29 29 30 30 31 32 33 34 34 34 32 30 29 30 30 29 26 22 19 16 16 15 15 15 15 15 15 15 16 18 19 21 22 23 23 23 23 22 21 20 19 19 18 18 18 18 18 19 20 21 22 22 23 23
33 33 32 31 31 31 30 30 30 31 31 31 32 32 32 32 32 31 31 31 30 29 29 28 28 27 27 26 25 25 25 26 28 29 30 30 31 31 32 33 33 32 31 29 28 27 28 28 26 23 19 16 15 15 15 15 16 16 17 18 19 21 21 22 22 22 22 22 21 21 20 19 19 19 19 19 19 19 19 20 20 21 22 22 22 23
32 31 30 30 30 30 30 30 31 31 31 32 32 32 32 32 32 32 31 31 30 29 29 28 28 27 27 26 26 25 25 26 27 28 29 29 30 31 31 31 31 30 29 28 27 26 26 26 25 23 19 16 15 14 15 15 16 17 18 19 20 20 20 20 20 20 20 20 20 21 21 21 22 22 23 22 22 22 21 21 22 22 22 21 21 21
30 30 29 29 29 30 30 31 31 31 32 32 32 32 32 32 32 32 32 31 30 30 29 28 28 27 26 26 25 25 26 26 27 28 29 29 29 29 29 29 28 27 27 27 26 25 25 24 23 21 19 17 15 14 14 14 15 16 16 17 17 18 18 18 18 19 20 21 21 22 23 24 25 25 25 25 25 25 24 24 23 22 21 20 20 19
29 29 29 29 29 30 30 31 32 32 32 33 33 33 33 32 32 32 32 31 30 30 29 29 28 27 26 25 24 24 25 26 27 28 29 29 28 28 27 26 25 25 24 24 24 24 23 22 20 19 18 16 15 14 13 13 13 14 14 15 15 16 17 17 18 20 21 22 23 24 24 25 25 26 26 26 26 26 25 25 23 22 21 20 19 18
29 29 29 29 30 30 31 31 32 33 33 33 33 33 33 33 33 32 32 31 31 30 29 29 28 28 27 25 24 23 24 25 26 27 28 28 27 26 25 24 23 22 22 21 21 21 20 19 18 17 16 16 15 14 14 14 14 14 15 16 16 17 18 19 20 21 22 23 24 25 25 26 26 26 26 27 27 26 26 24 23 21 20 19 18 19
29 29 30 30 30 31 31 32 33 33 33 33 33 33 33 33 32 32 32 31 31 30 29 29 28 28 27 26 25 23 23 23 25 26 27 27 26 24 23 21 21 20 20 19 18 18 17 17 16 15 15 15 15 15 15 16 17 18 18 19 20 20 21 21 22 23 24 25 26 27 27 27 27 27 28 28 28 27 26 24 22 20 19 18 19 20
29 30 30 31 31 32 32 33 33 33 33 33 33 33 33 33 32 32 32 31 31 30 29 28 28 28 27 26 25 24 23 23 24 25 25 25 24 22 21 20 19 18 17 16 15 15 14 14 14 14 14 15 15 16 17 18 19 20 21 22 23 23 24 25 25 26 27 28 29 29 29 29 29 29 29 29 28 27 25 23 21 19 18 18 19 21
30 31 31 32 32 32 32 32 33 33 33 33 33 33 32 32 32 32 31 31 30 29 28 28 27 27 26 26 24 23 23 23 23 24 24 23 22 20 19 18 17 16 16 15 13 12 12 12 13 14 14 15 15 16 17 17 18 19 20 22 23 24 25 26 27 28 29 30 31 31 31 31 31 31 30 30 28 26 24 21 19 18 18 19 20 22
31 31 32 32 32 32 32 32 32 32 32 32 32 32 32 31 31 31 31 30 29 28 28 27 26 26 26 25 24 23 22 22 22 23 23 22 20 18 17 16 15 15 14 13 12 11 11 11 12 13 14 15 16 16 17 17 18 18 19 20 21 23 24 25 27 28 29 30 31 31 30 30 30 30 29 28 27 24 22 20 19 19 19 20 22 24
31 31 32 32 32 32 32 32 32 32 32 32 31 31 31 30 30 30 30 30 29 28 27 26 26 25 25 24 23 22 21 21 21 21 22 20 18 16 15 14 13 13 13 12 12 11 11 11 12 13 14 15 15 16 17 17 18 18 19 19 20 21 22 24 25 27 28 29 29 29 29 28 27 27 26 25 24 22 20 19 19 20 21 23 25 26
31 31 31 31 31 31 31 31 32 31 31 31 31 30 30 30 29 29 29 29 28 27 26 25 25 24 24 24 23 21 20 20 20 20 20 19 17 14 13 12 12 12 12 12 12 11 12 12 13 14 15 15 16 16 17 18 19 19 20 20 20 20 21 23 25 26 27 27 28 27 27 26 24 23 22 22 21 20 19 19 19 21 22 23 25 25
29 30 30 30 30 30 31 31 31 31 31 31 30 30 29 29 28 28 28 28 27 26 25 24 24 23 23 23 22 21 20 19 19 19 18 17 15 13 11 11 11 11 11 12 12 12 13 13 14 14 15 16 16 17 17 18 19 20 20 20 20 20 20 22 24 25 26 26 26 25 25 23 22 21 20 19 19 19 19 19 19 19 20 21 22 24
28 28 28 29 29 29 30 30 31 31 31 31 30 30 29 28 28 27 27 26 26 25 24 23 22 22 22 22 22 21 20 19 18 17 17 16 14 12 11 10 10 10 11 12 12 13 13 14 14 15 15 16 16 17 18 19 20 21 21 21 20 20 20 21 22 24 25 25 24 24 23 22 21 20 20 20 20 20 20 19 19 19 20 21 22 23
27 27 28 28 28 29 29 30 30 30 30 30 30 29 29 28 27 27 26 25 25 24 23 22 21 20 20 20 20 20 19 18 17 17 16 14 13 11 10 9 9 10 11 11 12 13 14 14 14 15 15 16 17 18 19 20 21 21 21 21 21 21 21 22 23 23 23 23 23 23 23 23 23 22 22 22 22 22 21 20 19 19 19 20 22 23
26 27 27 28 28 29 29 29 30 30 30 29 29 28 28 27 27 26 25 25 24 23 22 21 20 19 19 19 19 18 18 17 17 16 15 14 12 10 10 9 9 10 10 11 12 13 13 14 14 15 16 17 18 20 21 21 22 22 21 21 21 21 22 22 23 23 22 22 22 22 23 24 25 25 24 24 23 23 22 20 18 18 18 20 21 22
26 26 27 28 28 28 29 29 29 29 29 29 28 28 27 27 26 25 25 24 23 22 21 20 19 18 17 17 17 17 17 16 16 16 15 14 12 10 9 9 9 9 10 11 11 12 13 13 14 15 16 17 19 20 22 22 23 22 22 21 21 21 21 22 22 22 21 21 22 22 23 24 25 25 25 24 24 22 20 18 17 17 18 19 20 22
25 26 27 27 28 28 28 28 28 28 28 28 28 28 27 26 25 24 24 23 22 21 20 19 18 17 16 16 16 15 15 15 15 15 14 13 12 10 9 9 9 9 10 10 11 12 12 13 13 14 16 17 18 20 21 22 23 22 22 21 21 21 21 22 21 20 20 20 21 22 23 23 24 25 25 25 23 21 19 17 16 16 17 19 20 22
25 25 26 27 27 27 27 27 27 28 28 28 28 27 27 26 25 24 23 22 21 20 19 18 17 16 16 15 15 14 14 14 14 14 13 13 12 11 10 9 9 9 9 10 11 12 12 13 13 14 16 17 18 19 20 21 22 22 22 22 21 21 22 21 20 19 19 20 20 21 22 23 24 25 25 24 22 19 17 16 16 16 17 19 21 23
24 25 25 26 26 26 26 26 26 26 27 27 27 27 26 26 25 24 22 21 20 19 17 16 16 16 15 15 14 14 13 13 13 13 12 12 11 10 10 9 9 9 9 10 11 12 12 13 13 14 15 16 18 19 19 20 20 21 21 22 22 22 22 21 19 18 18 19 20 20 21 23 24 25 24 22 19 17 15 15 15 16 18 20 22 23
24 24 24 25 25 25 25 25 25 26 26 26 26 26 25 25 24 23 22 21 20 18 17 16 15 15 15 14 14 13 13 12 12 12 12 11 11 10 10 10 10 10 10 10 11 11 12 13 13 14 15 16 17 18 19 19 20 20 21 22 22 22 22 20 18 17 18 19 19 19 20 22 24 23 21 19 17 15 14 14 15 16 18 20 22 23
24 24 24 24 24 24 25 25 25 25 25 25 25 25 25 24 24 23 22 21 20 19 17 16 15 14 14 14 13 13 12 12 12 11 11 11 10 10 10 10 10 10 10 10 10 11 12 13 14 15 16 16 17 18 19 19 20 20 21 22 22 22 21 18 17 17 17 18 19 20 21 22 22 21 18 16 15 15 15 14 14 16 18 20 22 22
Wind_Direction
306 306 306 306 306 306 306 306 305 305 304 304 304 303 303 302 301 301 300 300 299 299 298 298 299 299 299 299 299 299 299 299 300 300 300 301 301 302 303 303 303 303 303 302 302 301 300 299 297 295 293 291 288 285 282 279 276 273 270 268 266 264 262 261 259 258 258 257 257 257 257 257 258 258 258 259 259 259 258 258 259 259 259 259 260 260
306 307 307 307 307 307 306 306 306 305 305 304 304 303 303 302 302 301 300 300 300 299 299 299 299 299 300 300 300 300 300 300 301 302 302 303 304 305 306 306 306 306 306 306 305 305 305 304 302 300 298 296 293 290 286 283 279 276 273 270 267 265 263 261 259 258 258 257 257 257 257 257 257 257 258 258 258 258 258 258 258 259 259 259 259 259
307 307 307 307 307 307 307 306 306 305 305 305 304 304 303 302 302 301 301 300 300 300 300 300 300 300 300 300 300 301 301 301 302 303 305 306 307 308 308 308 308 308 308 308 309 308 308 307 306 305 303 300 298 294 291 287 283 279 276 272 269 267 264 262 260 259 258 257 257 257 257 257 257 257 257 258 258 258 258 258 258 258 258 259 259 259
308 308 308 308 307 307 307 306 306 306 305 305 304 304 303 303 302 301 301 301 301 301 301 300 300 300 300 301 301 301 302 303 304 305 306 308 308 309 309 308 308 309 309 310 310 310 310 309 308 307 306 304 301 299 295 292 288 284 280 276 273 269 267 264 262 260 259 258 258 257 257 257 257 257 258 258 258 258 258 258 258 258 258 258 258 257
308 308 308 308 308 308 307 307 306 306 305 305 305 304 303 303 302 301 301 301 301 301 300 300 300 301 301 301 301 302 302 303 305 306 308 309 309 309 308 308 309 309 310 311 311 311 310 310 309 308 307 305 304 302 299 296 292 289 285 281 277 273 270 267 265 263 261 260 259 259 258 258 258 258 258 259 259 259 258 258 258 257 257 257 256 256
309 309 308 308 308 308 308 307 307 306 306 305 305 304 303 302 302 301 301 301 301 300 300 300 300 301 302 302 302 302 303 304 306 308 309 309 309 309 308 309 309 310 311 311 312 311 311 310 309 309 308 307 305 303 301 299 296 292 289 285 281 277 274 271 268 266 264 263 262 261 260 260 259 259 259 259 258 258 258 257 257 256 256 255 255 254
309 309 309 309 309 308 308 308 307 307 306 305 305 304 303 302 301 301 301 301 300 300 300 300 301 302 302 302 302 303 304 305 307 309 310 310 309 309 309 310 311 312 313 313 313 312 312 311 311 310 309 308 307 305 303 300 298 295 292 288 285 281 278 275 272 270 267 266 264 263 262 261 260 260 259 259 258 257 257 256 255 255 254 254 253 253
310 309 309 309 309 309 308 308 307 307 306 305 304 303 302 301 301 301 301 301 301 301 301 302 302 303 303 303 303 303 305 307 309 311 312 311 310 310 310 311 313 314 314 315 314 314 314 313 313 313 312 311 310 308 306 303 301 298 295 292 289 286 283 279 276 274 271 269 267 266 264 263 262 261 260 259 258 257 256 256 255 254 254 253 252 252
310 310 310 309 309 309 309 308 307 307 306 305 304 303 302 301 300 300 301 301 302 302 303 303 304 304 304 303 303 304 306 309 312 314 314 312 311 311 311 313 314 315 316 316 315 315 315 315 315 315 314 313 312 310 308 306 304 302 299 296 293 290 287 284 281 278 275 273 271 269 267 265 264 263 262 261 260 259 257 256 255 254 253 253 252 251
310 310 310 310 310 309 309 308 307 307 306 305 304 302 302 301 301 301 302 303 303 304 304 305 305 305 304 303 304 305 307 311 314 316 315 313 312 312 312 314 315 316 316 315 315 314 314 314 314 314 314 313 312 311 309 308 306 304 302 300 297 294 291 288 285 281 279 276 273 271 269 267 265 264 263 261 260 259 259 257 256 255 254 253 252 251
310 310 310 310 310 309 309 308 307 306 305 304 303 303 303 303 303 303 304 304 305 305 305 305 305 305 304 304 304 306 309 313 316 317 316 314 312 312 312 313 315 315 315 314 313 313 313 313 313 312 312 311 310 308 308 307 306 305 303 302 300 297 295 292 289 285 282 278 275 273 270 268 266 264 263 262 261 260 259 258 257 256 255 253 252 251
310 310 310 310 310 309 309 308 307 306 305 304 304 303 304 305 305 306 306 306 306 306 306 306 306 305 305 305 305 307 310 314 317 318 316 314 312 311 311 312 313 313 313 312 312 311 311 311 311 310 309 308 306 305 304 304 303 303 302 302 301 300 298 295 292 288 284 280 277 274 271 269 267 265 264 262 261 260 259 258 257 256 255 254 253 252
311 311 311 310 310 310 309 308 307 306 306 305 305 305 306 307 307 308 308 308 307 307 306 306 306 306 306 306 307 308 311 314 317 318 316 313 311 309 309 310 311 312 312 311 311 310 310 309 309 308 307 306 304 303 302 301 300 300 299 299 300 299 298 296 293 289 286 282 279 276 273 271 269 267 265 264 262 261 260 259 258 257 256 255 254 253
311 311 311 311 310 310 309 308 308 307 306 306 306 307 307 308 309 309 309 308 308 307 307 307 307 307 307 307 307 309 311 314 316 317 315 313 310 309 309 310 311 311 311 311 310 309 309 308 308 307 306 304 303 302 301 300 299 298 297 297 297 297 297 295 293 291 287 284 281 278 275 273 271 270 268 266 265 263 262 260 259 258 257 256 255 254
311 311 311 311 311 310 309 309 308 307 307 307 307 308 309 309 310 310 310 309 309 308 308 308 308 308 308 307 307 308 310 313 315 316 316 314 311 309 308 309 311 311 311 310 309 309 308 307 307 306 304 303 303 302 301 300 299 298 296 295 295 295 295 295 294 293 290 287 284 281 278 275 273 271 270 268 266 265 263 262 261 259 258 257 256 255
312 312 312 311 310 310 309 308 308 307 307 308 308 309 310 311 311 311 311 310 310 309 309 309 308 308 307 306 305 306 308 311 314 317 317 315 312 309 308 309 310 311 310 309 309 308 307 307 306 305 304 303 303 302 302 301 300 298 296 295 293 293 294 295 295 295 293 291 287 283 280 277 274 272 270 269 267 266 264 263 261 259 258 257 256 255
312 312 311 311 310 309 308 308 308 307 308 308 309 310 312 313 313 313 312 312 311 311 311 310 308 307 305 303 303 304 306 310 314 317 318 316 312 309 307 308 309 310 309 309 308 307 307 306 306 305 304 304 304 304 304 303 302 299 296 294 292 292 293 295 296 296 295 292 288 285 281 278 275 273 271 269 267 265 263 261 260 258 257 255 254 254
312 311 310 309 308 308 308 308 308 308 308 309 310 312 313 314 315 314 314 314 313 313 312 310 308 307 305 304 303 303 305 309 313 317 318 316 312 308 306 307 308 309 309 308 308 308 308 307 307 307 306 307 307 307 307 306 304 301 296 293 291 292 294 296 296 295 293 290 287 283 280 277 275 273 271 269 267 264 263 261 259 258 256 255 254 253
311 310 309 308 308 307 308 308 308 309 309 310 312 314 315 316 316 316 315 315 315 314 313 311 309 307 306 306 305 305 305 308 312 316 317 315 311 307 305 306 308 309 309 309 309 309 309 309 309 309 310 310 311 311 311 309 306 302 297 294 293 295 296 297 296 293 289 285 281 278 277 276 274 274 272 271 269 268 266 264 263 262 260 259 258 257
310 309 308 308 307 307 308 309 310 310 311 312 313 315 316 317 317 316 316 316 316 315 314 313 311 309 308 308 307 306 306 308 312 315 315 314 311 308 306 307 308 310 311 311 311 311 311 311 312 313 314 315 315 315 313 311 307 303 299 297 298 298 298 297 294 288 283 278 274 274 275 276 277 278 277 277 276 275 273 272 270 268 267 265 264 262
310 309 308 308 308 309 310 311 311 311 312 313 314 316 317 317 317 317 318 318 318 318 316 315 313 311 309 308 307 306 306 308 311 313 315 314 313 310 308 309 310 312 313 313 313 313 313 314 314 316 317 318 318 317 315 312 308 304 301 301 301 301 299 294 288 280 274 271 272 275 279 282 283 284 283 283 281 280 279 277 275 273 271 269 268 266
310 309 308 309 309 310 311 312 312 312 313 314 315 316 317 318 318 319 320 320 321 321 320 318 315 313 310 309 307 306 306 308 311 313 315 316 315 313 311 311 312 314 315 315 315 314 315 316 317 318 320 321 320 318 315 311 307 304 303 303 302 300 294 287 279 273 270 272 276 281 285 286 287 287 286 285 284 282 280 277 275 273 272 270 269 268
309 309 309 310 310 311 312 312 313 313 313 314 315 316 318 319 320 321 322 323 323 323 321 319 316 312 310 308 307 306 306 308 312 316 318 320 319 316 314 314 315 317 318 317 316 316 316 317 319 321 322 322 321 318 315 311 307 305 305 304 302 296 288 279 273 271 273 278 284 289 290 290 289 289 287 286 284 282 279 277 274 272 270 268 267 266
309 309 310 311 311 312 313 313 313 312 312 313 314 316 318 320 322 323 324 324 324 324 322 319 316 313 310 308 307 307 308 311 315 319 322 323 322 319 316 316 318 320 320 319 318 317 318 319 321 322 323 322 320 318 314 310 307 307 307 305 300 292 283 276 274 276 282 289 293 294 293 293 292 290 289 288 286 283 280 277 273 269 267 264 262 261
309 310 310 311 312 313 313 313 313 312 313 313 314 316 318 321 323 324 325 326 325 325 323 321 319 316 314 312 311 311 312 315 318 322 325 325 324 321 318 318 320 321 321 320 319 319 320 321 323 324 324 322 319 316 312 308 308 309 309 307 300 292 283 280 282 287 294 297 298 298 297 296 294 292 290 288 287 284 282 278 273 269 264 260 257 255
310 310 311 312 312 313 313 313 313 313 313 314 315 316 319 321 323 325 325 325 325 325 325 324 323 321 319 317 316 315 316 319 322 325 326 326 324 322 320 320 321 323 323 321 321 321 322 324 325 325 324 322 318 313 309 307 309 312 314 312 306 297 290 289 293 297 300 301 301 300 299 297 294 292 289 287 286 284 282 279 274 269 264 260 257 253
311 311 312 312 313 313 313 313 313 313 313 314 315 317 320 322 324 325 326 326 326 326 326 326 326 326 325 323 321 320 320 321 324 326 326 326 324 322 321 322 323 324 324 323 323 323 325 326 327 327 325 321 316 311 307 308 312 316 319 318 313 305 298 298 299 301 302 302 301 300 298 296 293 291 288 287 286 285 283 280 275 270 265 260 257 254
311 311 312 312 313 313 313 312 312 312 312 313 315 317 320 322 324 325 325 326 326 326 327 328 328 329 328 327 326 324 322 323 324 326 326 326 324 323 322 324 325 326 326 326 325 326 327 328 328 328 325 320 314 309 306 308 312 318 321 320 315 308 304 303 303 303 302 302 301 299 298 296 294 292 290 289 288 288 286 282 277 271 266 261 258 256
311 311 311 312 312 312 312 312 311 311 312 313 314 317 319 321 323 324 324 325 325 326 327 328 329 330 330 329 328 326 324 324 325 325 326 326 325 324 325 326 327 328 329 328 328 328 328 329 329 329 326 320 313 307 304 306 310 314 316 316 312 309 308 307 306 305 303 302 302 301 300 299 298 296 295 295 295 294 292 288 282 275 269 264 260 258
310 310 311 311 311 311 311 311 311 311 312 313 314 316 318 320 321 322 323 323 324 325 326 328 329 330 330 330 329 327 326 325 324 325 326 326 326 326 327 327 328 329 331 331 331 330 330 330 330 329 326 321 314 307 304 303 305 308 310 311 311 311 310 309 308 306 306 305 305 305 305 306 306 306 305 303 302 300 298 294 288 281 273 267 263 260
309 310 310 310 310 310 310 310 311 311 311 312 313 314 316 317 318 319 320 321 322 323 325 326 328 329 330 329 329 328 327 325 325 324 326 327 327 328 329 329 330 331 333 334 334 333 332 332 331 330 327 322 316 310 306 305 305 307 309 310 311 311 311 310 310 310 310 311 312 313 314 315 315 314 312 310 306 303 300 296 290 283 276 270 265 262
309 309 309 309 310 309 310 310 310 310 311 311 312 312 313 314 314 315 316 318 319 321 323 325 326 328 329 329 329 329 327 326 325 325 326 328 329 330 331 331 332 333 335 336 336 336 335 335 334 333 331 325 319 312 309 308 308 310 311 313 313 314 314 316 317 318 319 321 321 322 322 322 321 319 317 314 310 306 302 297 291 284 277 271 266 263
309 309 309 309 309 309 309 309 310 310 310 310 310 311 311 311 312 312 314 315 317 319 321 322 324 326 328 329 329 329 328 326 325 326 328 330 331 333 333 334 335 336 337 338 338 338 339 339 338 337 336 333 327 321 316 314 315 316 318 319 320 321 322 323 324 325 326 326 326 325 324 323 321 319 317 315 311 308 304 299 293 286 279 273 268 265
309 309 309 309 309 309 310 310 310 310 309 309 309 309 309 309 309 310 311 313 315 317 318 320 322 324 326 328 329 329 328 326 326 327 329 331 333 335 336 337 338 339 339 339 340 342 344 346 346 345 343 343 342 340 335 331 330 330 330 329 328 327 327 326 325 325 325 324 324 323 322 321 320 318 316 314 311 307 304 300 294 288 281 276 273 272
309 309 309 309 309 310 310 310 310 309 309 308 308 308 308 308 308 308 309 311 313 315 316 318 320 322 324 326 328 329 328 326 326 327 330 333 335 336 338 339 341 341 341 342 344 346 350 354 356 356 354 352 352 353 352 349 345 342 339 336 333 331 329 328 326 325 324 323 322 322 322 321 320 319 317 314 312 308 305 301 296 290 283 279 278 279
309 309 309 309 309 309 309 309 309 308 308 307 307 307 306 307 307 307 308 309 311 313 314 315 317 319 322 324 327 328 328 327 326 328 331 334 336 338 340 342 343 344 345 346 348 352 356 1 6 8 5 1 358 356 355 353 349 346 343 341 339 337 336 334 332 330 328 326 325 325 325 325 324 322 321 318 316 312 308 303 297 290 284 281 282 284
309 309 309 309 309 309 309 308 308 307 307 306 306 306 306 306 306 306 307 308 309 310 312 313 314 316 319 322 325 327 328 328 328 329 332 335 337 339 341 343 345 346 347 349 353 357 1 5 8 10 9 6 1 357 354 352 350 348 347 345 344 343 342 340 338 336 333 331 329 329 329 329 328 327 325 322 319 315 310 304 296 289 284 282 285 288
309 309 309 309 309 308 308 307 307 306 306 306 305 305 305 306 306 306 306 307 307 308 309 310 311 313 316 319 323 326 327 328 328 330 333 336 338 339 341 344 346 347 348 351 355 360 3 4 5 5 4 1 358 355 354 352 351 349 349 348 347 345 343 341 338 335 333 331 330 330 330 330 329 328 325 323 320 316 310 303 294 287 283 284 287 292
309 309 308 308 308 308 307 307 307 306 306 305 305 305 306 306 306 306 306 306 306 306 306 307 308 310 312 316 320 323 326 327 328 331 334 336 337 338 341 343 345 346 347 351 355 358 359 359 358 358 356 355 353 353 353 352 350 349 349 349 347 345 342 339 336 333 331 329 329 329 330 330 328 326 324 322 320 316 310 302 293 287 285 288 293 298
309 309 308 309 308 309 308 308 308 307 307 306 306 306 307 307 307 306 306 305 305 304 305 305 306 307 310 313 317 321 324 326 328 330 334 335 336 336 338 341 343 344 345 348 351 353 352 351 351 351 351 351 352 352 352 350 349 348 347 347 346 344 341 339 336 333 331 330 330 330 331 330 329 327 326 324 322 318 311 303 296 292 292 296 299 302
309 309 309 309 310 310 310 309 309 309 309 308 309 309 309 308 308 307 306 305 304 303 303 303 304 305 307 310 314 319 322 325 327 330 333 334 333 333 334 337 339 340 341 343 346 346 346 346 346 348 349 350 351 351 350 348 346 345 345 345 346 346 344 341 339 336 334 333 333 334 334 334 333 332 332 332 330 325 319 312 306 302 302 304 306 307
310 310 311 311 312 312 312 312 312 312 311 311 311 311 310 309 308 307 306 304 303 302 301 301 301 302 305 307 311 316 320 323 326 329 331 331 330 328 328 330 333 335 337 339 341 341 342 343 345 347 348 349 349 348 346 344 343 343 344 346 348 349 348 345 342 339 338 337 337 337 337 337 338 338 339 339 338 335 330 324 319 316 314 313 312 311
312 312 313 313 314 314 315 315 315 314 314 314 314 313 312 311 309 308 306 304 303 301 300 299 298 299 301 304 308 312 317 321 324 327 329 328 325 322 321 323 326 330 333 335 337 338 340 342 345 347 349 350 349 347 345 343 343 344 345 347 349 349 348 346 344 342 341 341 340 339 338 338 338 339 339 339 338 336 333 330 327 324 322 319 317 315
315 315 316 317 317 318 318 318 318 317 317 317 316 315 314 313 311 310 308 305 303 301 299 297 296 297 298 301 305 309 314 318 321 324 326 325 321 316 314 315 320 324 329 333 335 337 340 344 347 350 352 352 351 349 346 345 344 345 346 348 349 348 346 345 344 344 344 344 343 340 338 337 336 336 335 334 333 332 331 329 328 327 325 323 320 318
318 319 320 320 321 321 321 321 321 320 320 319 319 318 317 315 314 312 310 307 305 302 300 297 295 295 296 299 302 307 310 314 318 321 323 323 318 312 307 308 313 318 325 331 335 339 341 345 349 352 353 353 352 349 347 345 345 345 347 348 348 347 346 344 343 344 346 347 345 341 338 337 337 336 335 335 333 332 331 332 332 331 329 326 323 321
322 322 323 324 324 324 324 324 324 324 323 323 322 321 320 319 317 315 312 310 307 304 301 298 295 293 293 296 299 303 307 310 313 317 320 320 317 309 302 302 307 314 320 328 334 339 343 347 350 352 352 352 350 347 345 344 344 345 346 347 347 346 344 342 342 344 347 348 346 343 340 339 340 340 340 339 338 337 338 340 339 337 333 330 328 328
324 325 325 326 326 327 327 327 327 327 326 326 325 324 323 321 319 317 315 312 309 306 302 298 295 293 292 293 296 300 303 305 308 311 315 317 315 308 300 297 300 308 317 324 330 336 341 346 349 350 349 348 346 344 343 343 343 344 345 345 345 344 343 342 343 346 349 349 347 344 342 342 342 342 342 342 342 344 346 347 345 341 338 337 337 338
326 326 327 328 328 329 329 330 330 330 329 328 327 326 325 324 322 320 317 314 311 308 303 299 295 293 292 292 295 297 299 300 302 305 310 313 312 306 298 293 294 300 309 318 325 331 337 342 346 347 346 344 343 342 341 342 344 344 345 344 343 343 343 344 347 351 353 351 347 344 343 343 344 343 343 344 347 350 353 351 348 345 345 346 348 348
327 328 328 329 330 331 331 331 331 331 331 330 329 328 327 326 324 322 320 317 313 309 304 299 295 292 291 292 294 296 297 297 298 301 306 310 309 304 295 289 287 291 298 307 316 325 332 338 342 345 345 344 343 343 343 344 346 346 345 344 343 343 345 349 354 358 357 353 349 346 346 346 346 346 346 349 353 356 355 352 350 351 353 355 356 356
328 329 329 330 331 331 332 332 332 332 332 332 331 331 330 329 327 325 323 320 316 312 307 301 295 291 290 291 293 295 296 296 296 298 302 307 308 302 293 285 281 283 288 297 307 317 327 334 340 345 348 348 347 346 347 348 349 349 348 345 344 345 348 354 1 3 359 353 350 350 351 350 350 350 353 356 358 358 355 352 353 358 1 2 2 1
329 329 330 331 331 332 332 332 332 333 333 333 333 333 332 331 330 328 326 323 320 316 311 305 298 293 290 290 292 293 294 293 293 294 300 306 307 302 293 283 277 276 279 288 299 311 322 331 338 344 350 352 352 351 351 352 353 353 351 348 346 347 351 359 5 5 359 354 353 355 356 355 354 355 359 2 2 359 356 355 360 6 8 8 7 6